Hooper Bay, AK

2:28 AM AKST on February 22, 2017 (GMT -0900)
Hooper Bay

Weather History for PAHP - July, 2013

Change the Weather History Date:

Thursday, July 18, 2013

  Actual Average Record
Temperature  
Mean Temperature 48 °F -  
Max Temperature 51 °F 53 °F 68 °F (2003)
Min Temperature 44 °F 46 °F 41 °F (2011)
Degree Days  
Heating Degree Days 18    
Moisture  
Dew Point 46 °F    
Average Humidity 89    
Maximum Humidity 94    
Minimum Humidity 76    
Precipitation  
Precipitation 0.00 in - - ()
Sea Level Pressure  
Sea Level Pressure 30.11 in    
Wind  
Wind Speed 7 mph (WNW)    
Max Wind Speed 15 mph    
Max Gust Speed 36 mph    
Visibility 9 miles    
Events      
Averages and records for this station are not official NWS values.
T = Trace of Precipitation, MM = Missing Value Source: NWS Daily Summary

Daily Weather History Graph

Daily Weather History Graph

Search for Another Location

Airport or City:

Trip Planner

Search our weather history database for the weather conditions in past years. The results will help you decide how hot, cold, wet, or windy it might be!

Date:

Astronomy

Jul. 18, 2013 Rise Set
Actual Time 6:00 AM AKDT 12:19 AM AKDT
Civil Twilight 4:30 AM AKDT 1:47 AM AKDT
Nautical Twilight Sun does not rise Sun does not rise
Astronomical Twilight Sun does not rise Sun does not rise
Moon 8:19 PM AKDT (7/18) 2:23 AM AKDT (7/18)
Length of Visible Light 21h 16m
Length of Day
18h 18m
Waxing Gibbous, 79% of the Moon is Illuminated
Jul 18
Waxing Gibbous
Jul 22
Full
Jul 29
Last Quarter
Aug 6
New
Aug 14
First Quarter

Hourly Weather History & Observations

Time (AKDT) Temp. Windchill Dew Point Humidity Pressure Visibility Wind Dir Wind Speed Gust Speed Precip Events Conditions
12:16 AM 48.2 °F - 44.6 °F 87% 30.10 in 10.0 mi West 3.5 mph - N/A   Clear
12:36 AM 48.2 °F - 44.6 °F 87% 30.10 in 10.0 mi West 4.6 mph - N/A   Clear
12:56 AM 48.2 °F - 44.6 °F 87% 30.10 in 10.0 mi West 3.5 mph - N/A   Clear
1:16 AM 46.4 °F 45.2 °F 44.6 °F 93% 30.09 in 10.0 mi WNW 3.5 mph - N/A   Clear
1:36 AM 46.4 °F - 44.6 °F 93% 30.09 in 10.0 mi Calm Calm - N/A   Clear
1:56 AM 48.2 °F - 44.6 °F 87% 30.09 in 10.0 mi Calm Calm - N/A   Clear
2:16 AM 46.4 °F 44.3 °F 44.6 °F 93% 30.10 in 10.0 mi West 4.6 mph - N/A   Partly Cloudy
2:36 AM 46.4 °F 45.2 °F 44.6 °F 93% 30.10 in 10.0 mi WNW 3.5 mph - N/A   Mostly Cloudy
2:56 AM 46.4 °F - 44.6 °F 93% 30.10 in 10.0 mi Calm Calm - N/A   Mostly Cloudy
3:16 AM 46.4 °F 45.2 °F 44.6 °F 93% 30.10 in 10.0 mi West 3.5 mph - N/A   Scattered Clouds
3:36 AM 48.2 °F - 44.6 °F 87% 30.09 in 10.0 mi West 4.6 mph - N/A   Mostly Cloudy
3:56 AM 46.4 °F 43.5 °F 44.6 °F 93% 30.09 in 10.0 mi WNW 5.8 mph - N/A   Overcast
4:16 AM 46.4 °F 44.3 °F 44.6 °F 93% 30.08 in 10.0 mi NW 4.6 mph - N/A   Overcast
4:36 AM 46.4 °F 44.3 °F 44.6 °F 93% 30.07 in 10.0 mi North 4.6 mph - N/A   Overcast
4:56 AM 48.2 °F - 46.4 °F 93% 30.06 in 10.0 mi North 4.6 mph - N/A   Overcast
5:16 AM 48.2 °F - 46.4 °F 93% 30.06 in 10.0 mi NNE 3.5 mph - N/A   Overcast
5:36 AM 48.2 °F - 46.4 °F 93% 30.05 in 10.0 mi North 5.8 mph - N/A   Overcast
5:56 AM 48.2 °F - 46.4 °F 93% 30.05 in 10.0 mi North 5.8 mph - N/A   Overcast
6:16 AM 48.2 °F - 46.4 °F 93% 30.05 in 10.0 mi Calm Calm - N/A   Overcast
6:36 AM 48.2 °F - 44.6 °F 87% 30.05 in 10.0 mi NNW 4.6 mph - N/A   Overcast
6:56 AM 48.2 °F - 46.4 °F 93% 30.05 in 10.0 mi North 4.6 mph - N/A   Overcast
8:56 AM 51.8 °F - 48.2 °F 88% 30.04 in 10.0 mi North 3.5 mph - N/A   Overcast
9:36 AM 51.8 °F - 48.2 °F 88% 30.04 in 10.0 mi North 3.5 mph - N/A   Overcast
9:56 AM 51.8 °F - 48.2 °F 88% 30.04 in 10.0 mi Calm Calm - N/A   Overcast
10:16 AM 51.8 °F - 50.0 °F 94% 30.04 in 9.0 mi NNW 4.6 mph - N/A   Mostly Cloudy
10:36 AM 51.8 °F - 50.0 °F 94% 30.04 in 10.0 mi North 5.8 mph - N/A   Overcast
10:56 AM 51.8 °F - 50.0 °F 94% 30.04 in 10.0 mi NNW 9.2 mph - N/A   Overcast
11:16 AM 51.8 °F - 50.0 °F 94% 30.04 in 10.0 mi NNW 10.4 mph - N/A   Overcast
11:36 AM 51.8 °F - 48.2 °F 88% 30.04 in 10.0 mi NW 10.4 mph - N/A   Overcast
11:56 AM 51.8 °F - 48.2 °F 88% 30.05 in 10.0 mi NW 11.5 mph - N/A   Overcast
12:16 PM 51.8 °F - 48.2 °F 88% 30.05 in 10.0 mi NW 10.4 mph - N/A   Overcast
12:36 PM 51.8 °F - 48.2 °F 88% 30.05 in 10.0 mi NW 11.5 mph - N/A   Overcast
12:56 PM 51.8 °F - 48.2 °F 88% 30.06 in 10.0 mi NW 11.5 mph - N/A   Overcast
1:16 PM 51.8 °F - 48.2 °F 88% 30.07 in 10.0 mi NW 12.7 mph - N/A   Overcast
1:36 PM 50.0 °F - 46.4 °F 87% 30.08 in 10.0 mi NW 15.0 mph - N/A   Overcast
1:56 PM 50.0 °F - 46.4 °F 87% 30.08 in 10.0 mi NW 13.8 mph - N/A   Overcast
2:16 PM 50.0 °F - 46.4 °F 87% 30.08 in 10.0 mi NW 15.0 mph - N/A   Overcast
2:36 PM 50.0 °F - 46.4 °F 87% 30.09 in 10.0 mi WNW 13.8 mph - N/A   Overcast
2:56 PM 51.8 °F - 46.4 °F 82% 30.09 in 10.0 mi NW 12.7 mph - N/A   Overcast
3:16 PM 51.8 °F - 46.4 °F 82% 30.09 in 10.0 mi NW 12.7 mph - N/A   Overcast
3:36 PM 51.8 °F - 46.4 °F 82% 30.10 in 10.0 mi WNW 12.7 mph - N/A   Overcast
3:56 PM 51.8 °F - 44.6 °F 76% 30.11 in 10.0 mi NW 11.5 mph - N/A   Overcast
4:16 PM 51.8 °F - 46.4 °F 82% 30.12 in 10.0 mi WNW 12.7 mph - N/A   Overcast
4:36 PM 50.0 °F - 44.6 °F 82% 30.12 in 10.0 mi WNW 12.7 mph - N/A   Overcast
4:56 PM 48.2 °F - 44.6 °F 87% 30.12 in 10.0 mi WNW 13.8 mph - N/A   Mostly Cloudy
5:16 PM 48.2 °F - 44.6 °F 87% 30.13 in 10.0 mi WNW 12.7 mph - N/A   Overcast
5:36 PM 48.2 °F - 44.6 °F 87% 30.13 in 10.0 mi WNW 11.5 mph - N/A   Overcast
5:56 PM 48.2 °F - 44.6 °F 87% 30.15 in 10.0 mi WNW 13.8 mph - N/A   Overcast
6:16 PM 48.2 °F - 44.6 °F 87% 30.15 in 10.0 mi WNW 12.7 mph - N/A   Overcast
6:36 PM 48.2 °F - 44.6 °F 87% 30.15 in 10.0 mi WNW 12.7 mph - N/A   Overcast
6:56 PM 48.2 °F - 44.6 °F 87% 30.16 in 10.0 mi West 13.8 mph - N/A   Overcast
7:16 PM 48.2 °F - 44.6 °F 87% 30.16 in 10.0 mi WNW 12.7 mph - N/A   Overcast
7:36 PM 48.2 °F - 44.6 °F 87% 30.17 in 10.0 mi West 13.8 mph - N/A   Overcast
7:56 PM 48.2 °F - 44.6 °F 87% 30.17 in 10.0 mi WNW 12.7 mph - N/A   Overcast
8:16 PM 48.2 °F - 44.6 °F 87% 30.17 in 10.0 mi WNW 12.7 mph - N/A   Overcast
8:36 PM 48.2 °F - 44.6 °F 87% 30.17 in 10.0 mi WNW 12.7 mph 20.7 mph N/A   Overcast
8:56 PM 48.2 °F - 44.6 °F 87% 30.17 in 10.0 mi West 11.5 mph - N/A   Overcast
9:16 PM 46.4 °F 41.1 °F 44.6 °F 93% 30.18 in 10.0 mi NW 11.5 mph - N/A   Overcast
9:36 PM 46.4 °F 40.7 °F 44.6 °F 93% 30.20 in 10.0 mi West 12.7 mph - N/A   Overcast
9:56 PM 46.4 °F 41.1 °F 44.6 °F 93% 30.20 in 1.2 mi West 11.5 mph - N/A   Overcast
10:16 PM 46.4 °F 41.1 °F 44.6 °F 93% 30.20 in 2.0 mi West 11.5 mph - N/A   Overcast
10:36 PM 44.6 °F 38.4 °F 42.8 °F 93% 30.21 in 3.0 mi West 12.7 mph - N/A   Overcast
10:56 PM 44.6 °F 38.8 °F 42.8 °F 93% 30.21 in 4.0 mi WSW 11.5 mph - N/A   Overcast
11:16 PM 44.6 °F 38.8 °F 42.8 °F 93% 30.22 in 3.0 mi WSW 11.5 mph 17.3 mph N/A   Overcast
11:36 PM 44.6 °F 38.4 °F 42.8 °F 93% 30.23 in 8.0 mi West 12.7 mph 35.7 mph N/A   Overcast
11:56 PM 44.6 °F 39.2 °F 42.8 °F 93% 30.23 in 8.0 mi WSW 10.4 mph - N/A   Overcast